Observations for Trim Patrick St
| Time | AQI | Temp °C | Hum % | Pres Pa | CO μg/m³ | H₂S μg/m³ | NO μg/m³ | NO₂ μg/m³ | O₃ μg/m³ | SO₂ μg/m³ | PM1 μg/m³ | PM2.5 μg/m³ | PM10 μg/m³ |
|---|---|---|---|---|---|---|---|---|---|---|---|---|---|
| Wednesday 5 August 2026 | |||||||||||||
| 15:49 | 2 | 22.2 | 56 | 74,306 | 0 | 15.66 | 2.01 | 12.07 | 90.15 | 7.71 | 2 | 6 | 6.6 |
| 15:48 | 2 | 22.5 | 56 | 73,721 | 0 | 18.8 | 1.58 | 12.53 | 101.92 | 8.54 | 2 | 6.05 | 6.65 |
| 15:47 | 2 | 22.8 | 55 | 73,041 | 0 | 15.44 | 1.47 | 12.97 | 91.19 | 7.36 | 2 | 6.11 | 6.72 |
| 15:46 | 2 | 23.2 | 54 | 72,322 | 0 | 14.63 | 1.6 | 12.78 | 88.29 | 8.08 | 2 | 6.16 | 6.78 |
| 15:45 | 2 | 23.5 | 53 | 71,468 | 0 | 19.32 | 1.67 | 13.72 | 96.7 | 8.54 | 2 | 6.22 | 6.85 |
| 15:44 | 2 | 23.8 | 51 | 70,533 | 0 | 15.49 | 1.52 | 15.4 | 88.78 | 7.93 | 2 | 7.09 | 7.79 |
| 15:43 | 2 | 24.1 | 50 | 69,656 | 0 | 9.04 | 1.9 | 29.38 | 75.85 | 8.31 | 2 | 6.4 | 7.04 |
| 15:42 | 2 | 24.3 | 48 | 69,195 | 0 | 0 | 2.04 | 11.54 | 61.97 | 6.68 | 2 | 6.56 | 7.21 |
| 15:41 | 2 | 24.5 | 46 | 69,134 | 0 | 0 | 2 | 9.27 | 60.27 | 6.7 | 2 | 6.63 | 7.3 |
| 15:40 | 2 | 24.7 | 47 | 69,128 | 0 | 0 | 1.83 | 8.91 | 43.33 | 6.27 | 2 | 6.62 | 7.28 |
| 15:39 | 2 | 24.8 | 47 | 69,147 | 0 | 0 | 1.72 | 8 | 53.67 | 6.99 | 2 | 6.61 | 7.27 |
| 15:38 | 2 | 24.8 | 47 | 69,179 | 0 | 0 | 1.89 | 9.93 | 54.8 | 7.43 | 2 | 6.58 | 7.24 |
| 15:37 | 2 | 24.8 | 48 | 69,210 | 0 | 0 | 1.82 | 11.68 | 65.77 | 7.33 | 2 | 6.55 | 7.21 |
| 15:36 | 2 | 24.8 | 47 | 69,216 | 0 | 0 | 1.68 | 10.85 | 62.54 | 7.06 | 2 | 7.35 | 8.08 |
| 15:35 | 2 | 24.7 | 48 | 69,254 | 0 | 0 | 2.06 | 11.69 | 63.66 | 5.97 | 2 | 6.54 | 7.19 |
| 15:34 | 2 | 24.6 | 49 | 69,280 | 0 | 0 | 2.13 | 10.39 | 62.94 | 6.74 | 2 | 6.48 | 7.13 |
| 15:33 | 2 | 24.4 | 50 | 69,312 | 0 | 0 | 2.3 | 9.71 | 61.3 | 6.45 | 2 | 6.43 | 7.08 |
| 15:32 | 2 | 24.2 | 50 | 69,351 | 0 | 0.83 | 2.44 | 12.27 | 83.21 | 6.97 | 2 | 6.41 | 7.05 |
| 15:29 | 2 | 23.8 | 51 | 69,395 | 0 | 0.01 | 2.58 | 12.09 | 81.38 | 5.99 | 2 | 6.37 | 7.01 |
| 15:25 | 2 | 23.6 | 49 | 69,395 | 0 | 0 | 2.53 | 11.48 | 63.43 | 5.89 | 2 | 6.46 | 7.11 |